When you browse on this site, cookies collect data to enhance your experience and personalize the content and advertising you see.
Visit our Privacy Policy to learn more. By continuing to use the site, you agree to this use of cookies and data.
  • Em Portugal
  • Lista de países
  • Para 7 dias
  • Temperatura da água
  • Mapas de satélite
  • Mapa do tempo
  • Widgets de tempo
  • user-avatar
    Iniciar Sessão

    Previsão horária em Emona

    Hoje, 25 Maio, Sábado

    Tempo Temperatura Precipitação Vento Pressão Humidade
    00:00 +14°C° 0 mm 3 m/s 756 mmHg 88%
    01:00 +13°C° 0 mm 3 m/s 756 mmHg 88%
    02:00 +14°C° 0 mm 2 m/s 756 mmHg 88%
    03:00 +12°C° 0 mm 3 m/s 756 mmHg 88%
    04:00 +12°C° 0 mm 3 m/s 756 mmHg 88%
    05:00 +12°C° 0 mm 3 m/s 757 mmHg 88%
    06:00 +14°C° 0 mm 4 m/s 757 mmHg 83%
    07:00 +17°C° 0 mm 4 m/s 757 mmHg 77%
    08:00 +19°C° 0 mm 4 m/s 758 mmHg 71%
    09:00 +20°C° 0.1 mm 4 m/s 758 mmHg 67%
    10:00 +22°C° 0.1 mm 4 m/s 758 mmHg 62%
    11:00 +23°C° 0.1 mm 4 m/s 758 mmHg 58%
    12:00 +23°C° 0.6 mm 4 m/s 758 mmHg 59%
    13:00 +25°C° 0.6 mm 3 m/s 758 mmHg 60%
    14:00 +25°C° 0.6 mm 3 m/s 758 mmHg 61%
    15:00 +25°C° 0.5 mm 3 m/s 758 mmHg 62%
    16:00 +25°C° 0.5 mm 3 m/s 758 mmHg 64%
    17:00 +24°C° 0.5 mm 2 m/s 758 mmHg 66%
    18:00 +23°C° 0.1 mm 2 m/s 758 mmHg 70%
    19:00 +20°C° 0.1 mm 2 m/s 758 mmHg 74%
    20:00 +19°C° 0.1 mm 1 m/s 758 mmHg 79%
    21:00 +19°C° 0 mm 1 m/s 758 mmHg 81%
    22:00 +17°C° 0 mm 2 m/s 759 mmHg 83%
    23:00 +16°C° 0 mm 2 m/s 759 mmHg 85%

    Amanhã, 26 Maio, Domingo

    Tempo Temperatura Precipitação Vento Pressão Humidade
    00:00 +16°C° 0 mm 2 m/s 759 mmHg 85%
    01:00 +16°C° 0 mm 2 m/s 759 mmHg 86%
    02:00 +16°C° 0 mm 2 m/s 760 mmHg 86%
    03:00 +16°C° 0 mm 2 m/s 760 mmHg 86%
    04:00 +14°C° 0 mm 3 m/s 760 mmHg 86%
    05:00 +14°C° 0 mm 3 m/s 760 mmHg 86%
    06:00 +17°C° 0 mm 3 m/s 760 mmHg 80%
    07:00 +19°C° 0 mm 2 m/s 761 mmHg 73%
    08:00 +23°C° 0 mm 2 m/s 761 mmHg 67%
    09:00 +24°C° 0 mm 2 m/s 761 mmHg 62%
    10:00 +26°C° 0 mm 1 m/s 761 mmHg 57%
    11:00 +27°C° 0 mm 1 m/s 761 mmHg 51%
    12:00 +28°C° 0 mm 1 m/s 761 mmHg 50%
    13:00 +28°C° 0 mm 1 m/s 761 mmHg 49%
    14:00 +28°C° 0 mm 2 m/s 761 mmHg 48%
    15:00 +28°C° 0 mm 2 m/s 761 mmHg 50%
    16:00 +28°C° 0 mm 2 m/s 761 mmHg 52%
    17:00 +27°C° 0 mm 3 m/s 760 mmHg 55%
    18:00 +25°C° 0 mm 3 m/s 761 mmHg 62%
    19:00 +22°C° 0 mm 3 m/s 761 mmHg 70%
    20:00 +20°C° 0 mm 3 m/s 761 mmHg 78%
    21:00 +19°C° 0 mm 2 m/s 761 mmHg 80%
    22:00 +19°C° 0 mm 2 m/s 761 mmHg 83%
    23:00 +19°C° 0 mm 1 m/s 762 mmHg 85%

    Depois de amanhã, 27 Maio, Segunda-feira

    Tempo Temperatura Precipitação Vento Pressão Humidade
    00:00 +19°C° 0 mm 1 m/s 762 mmHg 86%
    01:00 +18°C° 0 mm 1 m/s 761 mmHg 86%
    02:00 +16°C° 0 mm 0 m/s 761 mmHg 87%
    03:00 +16°C° 0 mm 0 m/s 761 mmHg 87%
    04:00 +16°C° 0 mm 0 m/s 761 mmHg 88%
    05:00 +16°C° 0 mm 0 m/s 761 mmHg 88%
    06:00 +18°C° 0 mm 0 m/s 761 mmHg 81%
    07:00 +20°C° 0 mm 0 m/s 762 mmHg 74%
    08:00 +22°C° 0 mm 0 m/s 762 mmHg 67%
    09:00 +25°C° 0 mm 2 m/s 762 mmHg 62%
    10:00 +26°C° 0 mm 3 m/s 762 mmHg 56%
    11:00 +27°C° 0 mm 4 m/s 762 mmHg 51%
    12:00 +27°C° 0 mm 4 m/s 761 mmHg 51%
    13:00 +27°C° 0 mm 5 m/s 761 mmHg 51%
    14:00 +27°C° 0 mm 5 m/s 761 mmHg 51%
    15:00 +27°C° 0 mm 5 m/s 761 mmHg 54%
    16:00 +26°C° 0 mm 5 m/s 760 mmHg 58%
    17:00 +25°C° 0 mm 5 m/s 760 mmHg 61%
    18:00 +22°C° 0 mm 4 m/s 760 mmHg 70%
    19:00 +20°C° 0 mm 4 m/s 760 mmHg 78%
    20:00 +18°C° 0 mm 3 m/s 761 mmHg 87%
    21:00 +17°C° 0 mm 2 m/s 761 mmHg 89%
    22:00 +17°C° 0 mm 2 m/s 761 mmHg 90%
    23:00 +16°C° 0 mm 2 m/s 761 mmHg 91%

    28 Maio, Terça-feira

    Tempo Temperatura Precipitação Vento Pressão Humidade
    00:00 +16°C° 0 mm 2 m/s 760 mmHg 91%
    01:00 +16°C° 0 mm 2 m/s 760 mmHg 91%
    02:00 +16°C° 0 mm 1 m/s 760 mmHg 91%
    03:00 +16°C° 0 mm 1 m/s 760 mmHg 91%
    04:00 +15°C° 0 mm 1 m/s 759 mmHg 92%
    05:00 +15°C° 0 mm 1 m/s 759 mmHg 92%
    06:00 +18°C° 0 mm 2 m/s 759 mmHg 84%
    07:00 +20°C° 0 mm 2 m/s 759 mmHg 77%
    08:00 +23°C° 0 mm 2 m/s 759 mmHg 69%
    09:00 +25°C° 0 mm 2 m/s 759 mmHg 64%
    10:00 +27°C° 0 mm 2 m/s 759 mmHg 58%
    11:00 +28°C° 0 mm 3 m/s 758 mmHg 53%
    12:00 +29°C° 0 mm 3 m/s 758 mmHg 51%
    13:00 +30°C° 0 mm 4 m/s 758 mmHg 50%
    14:00 +32°C° 0 mm 4 m/s 757 mmHg 49%
    15:00 +30°C° 0 mm 4 m/s 757 mmHg 53%
    16:00 +29°C° 0 mm 4 m/s 756 mmHg 56%
    17:00 +28°C° 0 mm 4 m/s 756 mmHg 60%
    18:00 +26°C° 0 mm 3 m/s 756 mmHg 67%
    19:00 +24°C° 0 mm 3 m/s 756 mmHg 74%
    20:00 +21°C° 0 mm 2 m/s 756 mmHg 81%
    21:00 +21°C° 0 mm 2 m/s 756 mmHg 77%
    22:00 +20°C° 0 mm 2 m/s 756 mmHg 73%
    23:00 +20°C° 0 mm 2 m/s 757 mmHg 69%

    29 Maio, Quarta-feira

    Tempo Temperatura Precipitação Vento Pressão Humidade
    00:00 +20°C° 0 mm 2 m/s 756 mmHg 64%
    01:00 +19°C° 0 mm 3 m/s 756 mmHg 58%
    02:00 +19°C° 0 mm 3 m/s 756 mmHg 52%
    03:00 +18°C° 0 mm 3 m/s 756 mmHg 58%
    04:00 +18°C° 0 mm 3 m/s 756 mmHg 64%
    05:00 +17°C° 0 mm 3 m/s 756 mmHg 69%
    06:00 +19°C° 0 mm 3 m/s 757 mmHg 66%
    07:00 +22°C° 0 mm 3 m/s 757 mmHg 63%
    08:00 +25°C° 0 mm 3 m/s 757 mmHg 60%
    09:00 +27°C° 0 mm 3 m/s 757 mmHg 56%
    10:00 +28°C° 0 mm 3 m/s 757 mmHg 52%
    11:00 +30°C° 0 mm 3 m/s 757 mmHg 47%
    12:00 +31°C° 0 mm 3 m/s 757 mmHg 46%
    13:00 +31°C° 0 mm 3 m/s 757 mmHg 44%
    14:00 +33°C° 0 mm 3 m/s 757 mmHg 43%
    15:00 +33°C° 0 mm 3 m/s 757 mmHg 45%
    16:00 +31°C° 0 mm 3 m/s 757 mmHg 47%
    17:00 +31°C° 0 mm 3 m/s 757 mmHg 49%
    18:00 +29°C° 0 mm 3 m/s 757 mmHg 55%
    19:00 +26°C° 0 mm 3 m/s 758 mmHg 61%
    20:00 +24°C° 0 mm 3 m/s 758 mmHg 66%
    21:00 +22°C° 0 mm 3 m/s 758 mmHg 68%
    22:00 +21°C° 0 mm 3 m/s 758 mmHg 70%
    23:00 +20°C° 0 mm 2 m/s 759 mmHg 72%

    30 Maio, Quinta-feira

    Tempo Temperatura Precipitação Vento Pressão Humidade
    00:00 +20°C° 0 mm 2 m/s 759 mmHg 73%
    01:00 +19°C° 0 mm 2 m/s 759 mmHg 74%
    02:00 +19°C° 0 mm 2 m/s 759 mmHg 76%
    03:00 +19°C° 0 mm 2 m/s 759 mmHg 77%
    04:00 +19°C° 0 mm 2 m/s 760 mmHg 78%
    05:00 +19°C° 0 mm 2 m/s 760 mmHg 80%
    06:00 +21°C° 0 mm 2 m/s 760 mmHg 74%
    07:00 +24°C° 0 mm 2 m/s 760 mmHg 69%
    08:00 +26°C° 0 mm 2 m/s 761 mmHg 63%
    09:00 +28°C° 0 mm 3 m/s 761 mmHg 59%
    10:00 +29°C° 0 mm 3 m/s 761 mmHg 55%
    11:00 +31°C° 0 mm 3 m/s 761 mmHg 51%
    12:00 +32°C° 0.2 mm 4 m/s 760 mmHg 51%
    13:00 +32°C° 0.2 mm 4 m/s 760 mmHg 51%
    14:00 +32°C° 0.2 mm 4 m/s 760 mmHg 51%
    15:00 +30°C° 0.1 mm 4 m/s 760 mmHg 53%
    16:00 +30°C° 0.1 mm 3 m/s 760 mmHg 55%
    17:00 +29°C° 0.1 mm 3 m/s 760 mmHg 57%
    18:00 +27°C° 0 mm 2 m/s 760 mmHg 63%
    19:00 +25°C° 0 mm 1 m/s 760 mmHg 69%
    20:00 +23°C° 0 mm 1 m/s 760 mmHg 75%
    21:00 +23°C° 0 mm 1 m/s 761 mmHg 76%
    22:00 +20°C° 0 mm 0 m/s 761 mmHg 76%
    23:00 +20°C° 0 mm 0 m/s 761 mmHg 77%
    Mostrar mais